Minneapolis Flying Cloud, MN

4:17 AM CDT on October 21, 2019 (GMT -0500)
Flying Cloud

Weather History for KFCM - August, 2019

Change the Weather History Date:

Monday, August 12, 2019

  Actual Average Record
Temperature  
Mean Temperature 72 °F -  
Max Temperature 80 °F 78 °F 91 °F (2010)
Min Temperature 64 °F 58 °F 46 °F (2004)
Cooling Degree Days 6    
Growing Degree Days 22 (Base 50)    
Moisture  
Dew Point 66 °F    
Average Humidity 88    
Maximum Humidity 97    
Minimum Humidity 71    
Precipitation  
Precipitation 0.00 in - - ()
Sea Level Pressure  
Sea Level Pressure 29.88 in    
Wind  
Wind Speed 2 mph (NE)    
Max Wind Speed 9 mph    
Max Gust Speed -    
Visibility 5 miles    
Events Fog    
Averages and records for this station are not official NWS values.
T = Trace of Precipitation, MM = Missing Value Source: NWS Daily Summary

Daily Weather History Graph

Daily Weather History Graph

Search for Another Location

Airport or City:

Astronomy

Aug. 12, 2019 Rise Set
Actual Time 6:12 AM CDT 8:24 PM CDT
Civil Twilight 5:39 AM CDT 8:56 PM CDT
Nautical Twilight 5:00 AM CDT 9:36 PM CDT
Astronomical Twilight 4:15 AM CDT 10:20 PM CDT
Moon 7:01 PM CDT (8/12) 3:15 AM CDT (8/12)
Length of Visible Light 15h 16m
Length of Day
14h 12m
Waxing Gibbous, 93% of the Moon is Illuminated
Aug 12
Waxing Gibbous
Aug 15
Full
Aug 23
Last Quarter
Aug 30
New
Sep 5
First Quarter

Hourly Weather History & Observations

Time (CDT) Temp. Dew Point Humidity Pressure Visibility Wind Dir Wind Speed Gust Speed Precip Events Conditions
12:53 AM 66.0 °F 64.0 °F 93% 29.95 in 7.0 mi SSW 4.6 mph - N/A   Clear
1:04 AM 66.9 °F 64.9 °F 93% 29.95 in 1.5 mi Calm Calm - N/A   Partly Cloudy
1:19 AM 66.0 °F 64.0 °F 93% 29.95 in 3.0 mi Calm Calm - N/A   Partly Cloudy
1:23 AM 66.0 °F 64.0 °F 93% 29.95 in 1.0 mi Calm Calm - N/A   Mist
1:28 AM 66.9 °F 64.9 °F 93% 29.95 in 0.2 mi Calm Calm - N/A Fog Fog
1:53 AM 66.0 °F 64.0 °F 93% 29.94 in 0.2 mi SW 3.5 mph - N/A Fog Fog
2:04 AM 66.0 °F 64.0 °F 93% 29.94 in 0.5 mi Calm Calm - N/A Fog Fog
2:11 AM 66.0 °F 64.0 °F 93% 29.93 in 0.2 mi Calm Calm - N/A Fog Fog
2:26 AM 66.0 °F 64.0 °F 93% 29.92 in 1.0 mi North 3.5 mph - N/A   Mist
2:30 AM 64.9 °F 64.0 °F 97% 29.93 in 2.0 mi North 3.5 mph - N/A   Partly Cloudy
2:38 AM 66.0 °F 64.0 °F 93% 29.93 in 3.0 mi Calm Calm - N/A   Partly Cloudy
2:53 AM 64.9 °F 64.0 °F 97% 29.91 in 3.0 mi Calm Calm - N/A   Clear
3:08 AM 66.0 °F 64.0 °F 93% 29.92 in 1.5 mi Calm Calm - N/A   Clear
3:11 AM 66.0 °F 64.0 °F 93% 29.92 in 0.8 mi Calm Calm - N/A   Mist
3:18 AM 64.9 °F 64.0 °F 97% 29.92 in 1.2 mi Calm Calm - N/A   Partly Cloudy
3:20 AM 64.9 °F 63.0 °F 93% 29.92 in 3.0 mi Calm Calm - N/A   Clear
3:32 AM 64.9 °F 63.0 °F 93% 29.91 in 1.5 mi Calm Calm - N/A   Scattered Clouds
3:34 AM 64.9 °F 63.0 °F 93% 29.91 in 0.8 mi Calm Calm - N/A   Mist
3:49 AM 64.4 °F 62.6 °F 94% 29.91 in 2.0 mi Calm Calm - N/A   Mostly Cloudy
3:53 AM 64.9 °F 63.0 °F 93% 29.91 in 2.5 mi Calm Calm - N/A   Scattered Clouds
4:00 AM 64.9 °F 64.0 °F 97% 29.92 in 3.0 mi Calm Calm - N/A   Scattered Clouds
4:17 AM 64.9 °F 63.0 °F 93% 29.92 in 5.0 mi Calm Calm - N/A   Mostly Cloudy
4:25 AM 64.9 °F 63.0 °F 93% 29.92 in 1.8 mi Calm Calm - N/A   Mostly Cloudy
4:34 AM 64.9 °F 63.0 °F 93% 29.93 in 0.5 mi Calm Calm - N/A Fog Fog
4:48 AM 64.4 °F 62.6 °F 94% 29.92 in 2.0 mi Calm Calm - N/A   Mostly Cloudy
4:53 AM 64.0 °F 63.0 °F 96% 29.91 in 1.8 mi Calm Calm - N/A   Scattered Clouds
4:55 AM 64.0 °F 63.0 °F 96% 29.92 in 1.8 mi Calm Calm - N/A   Mostly Cloudy
5:22 AM 64.9 °F 63.0 °F 93% 29.90 in 0.8 mi NNE 3.5 mph - N/A   Mist
5:27 AM 64.9 °F 63.0 °F 93% 29.90 in 2.0 mi NNE 4.6 mph - N/A   Mostly Cloudy
5:33 AM 64.9 °F 63.0 °F 93% 29.89 in 3.0 mi NNE 4.6 mph - N/A   Scattered Clouds
5:53 AM 64.9 °F 64.0 °F 97% 29.89 in 4.0 mi NNE 3.5 mph - N/A   Clear
6:53 AM 66.9 °F 64.9 °F 93% 29.88 in 5.0 mi East 3.5 mph - N/A   Clear
7:53 AM 68.0 °F 66.0 °F 93% 29.88 in 4.0 mi ENE 3.5 mph - N/A   Clear
8:17 AM 68.0 °F 66.0 °F 93% 29.90 in 2.5 mi SSE 3.5 mph - N/A   Partly Cloudy
8:35 AM 69.1 °F 66.0 °F 90% 29.89 in 4.0 mi Calm Calm - N/A   Scattered Clouds
8:53 AM 70.0 °F 66.9 °F 90% 29.88 in 4.0 mi ENE 4.6 mph - N/A   Mostly Cloudy
9:53 AM 72.0 °F 66.0 °F 81% 29.86 in 9.0 mi ENE 6.9 mph - N/A   Mostly Cloudy
10:29 AM 73.0 °F 66.9 °F 81% 29.88 in 10.0 mi ENE 5.8 mph - N/A   Overcast
10:49 AM 73.4 °F 66.2 °F 78% 29.88 in 10.0 mi ENE 6.9 mph - N/A   Overcast
10:53 AM 73.0 °F 66.9 °F 81% 29.87 in 10.0 mi ENE 6.9 mph - N/A   Mostly Cloudy
11:53 AM 73.9 °F 66.9 °F 79% 29.86 in 10.0 mi East 6.9 mph - N/A   Scattered Clouds
12:53 PM 75.0 °F 68.0 °F 79% 29.83 in 10.0 mi East 8.1 mph - 0.00 in   Overcast
1:53 PM 77.0 °F 68.0 °F 74% 29.82 in 10.0 mi ENE 9.2 mph - N/A   Overcast
2:53 PM 78.1 °F 68.0 °F 71% 29.83 in 10.0 mi NE 4.6 mph - N/A   Overcast
3:53 PM 79.0 °F 69.1 °F 72% 29.82 in 10.0 mi NNE 6.9 mph - N/A   Overcast
4:53 PM 79.0 °F 69.1 °F 72% 29.81 in 10.0 mi NE 8.1 mph - 0.00 in   Mostly Cloudy
5:00 PM 78.1 °F 69.1 °F 74% 29.82 in 10.0 mi ENE 6.9 mph - N/A   Mostly Cloudy
5:22 PM 78.1 °F 69.1 °F 74% 29.82 in 10.0 mi NE 6.9 mph - N/A   Scattered Clouds
5:53 PM 79.0 °F 69.1 °F 72% 29.80 in 10.0 mi NE 8.1 mph - N/A   Clear
6:53 PM 77.0 °F 68.0 °F 74% 29.81 in 10.0 mi NE 5.8 mph - N/A   Partly Cloudy
7:53 PM 77.0 °F 68.0 °F 74% 29.81 in 10.0 mi NE 4.6 mph - N/A   Mostly Cloudy
8:00 PM 75.9 °F 68.0 °F 76% 29.82 in 10.0 mi NE 4.6 mph - N/A   Mostly Cloudy
8:53 PM 75.9 °F 68.0 °F 76% 29.81 in 10.0 mi NE 4.6 mph - N/A   Overcast
9:53 PM 75.0 °F 66.9 °F 76% 29.81 in 10.0 mi North 4.6 mph - N/A   Mostly Cloudy
10:10 PM 73.9 °F 68.0 °F 82% 29.83 in 10.0 mi Variable 3.5 mph - N/A   Mostly Cloudy
10:25 PM 73.9 °F 68.0 °F 82% 29.83 in 10.0 mi Calm Calm - N/A   Overcast
10:48 PM 71.6 °F 69.8 °F 94% 29.84 in 9.0 mi SSE 4.6 mph - N/A   Overcast
10:53 PM 72.0 °F 69.1 °F 91% 29.83 in 8.0 mi SE 3.5 mph - N/A   Overcast
11:20 PM 72.0 °F 68.0 °F 87% 29.84 in 8.0 mi Calm Calm - N/A   Mostly Cloudy
11:53 PM 72.0 °F 68.0 °F 87% 29.83 in 10.0 mi Calm Calm - N/A   Partly Cloudy